Location: Bli��� Lhota
(48.7570°N, 14.0120°E)
Time: 02:31:28
(UTC+00:00)

ERS-1 Rocket - Pass Details

Date: 18 September 2020
Orbit: 753 x 757 km, 98.5° (Epoch: 24 October)

Event Time Altitude Azimuth Distance (km) Brightness Sun altitude
Exits shadow 20:57:24 39° 323° (NW) 1,129 4.2 -33.5°
Drops below altitude 10° 21:00:39 10° 340° (NNW) 2,295 6.2 -33.8°
Sets 21:03:00 0° 344° (NNW) 3,225 7.2 -34.0°
